TimeEDT,TemperatureF,Dew PointF,Humidity,Sea Level PressureIn,VisibilityMPH,Wind Direction,Wind SpeedMPH,Gust SpeedMPH,PrecipitationIn,Events,Conditions,WindDirDegrees,DateUTC
12:54 AM,53.1,50.0,89,30.10,10.0,Calm,Calm,-,N/A,,Clear,0,2013-09-10 04:54:00
1:54 AM,54.0,51.1,90,30.12,10.0,Calm,Calm,-,N/A,,Mostly Cloudy,0,2013-09-10 05:54:00
2:54 AM,57.9,53.1,84,30.10,10.0,Calm,Calm,-,N/A,,Overcast,0,2013-09-10 06:54:00
3:54 AM,57.9,54.0,87,30.09,10.0,NNE,3.5,-,N/A,,Overcast,30,2013-09-10 07:54:00
4:54 AM,57.9,55.0,90,30.08,10.0,Calm,Calm,-,0.00,,Overcast,0,2013-09-10 08:54:00
5:54 AM,61.0,57.0,87,30.08,10.0,Calm,Calm,-,N/A,,Overcast,0,2013-09-10 09:54:00
6:54 AM,64.0,57.9,80,30.08,10.0,South,3.5,-,0.00,,Overcast,190,2013-09-10 10:54:00
7:54 AM,64.9,59.0,81,30.07,10.0,North,3.5,-,N/A,,Overcast,350,2013-09-10 11:54:00
8:54 AM,66.0,61.0,84,30.07,10.0,Calm,Calm,-,N/A,,Overcast,0,2013-09-10 12:54:00
9:10 AM,64.4,60.8,88,30.07,2.5,South,5.8,-,0.03,Rain,Light Rain,190,2013-09-10 13:10:00
9:19 AM,64.4,62.6,94,30.07,2.0,SSW,4.6,-,0.06,Rain,Rain,210,2013-09-10 13:19:00
9:25 AM,64.4,62.6,94,30.08,2.0,Calm,Calm,-,0.08,Rain-Thunderstorm,Rain,0,2013-09-10 13:25:00
9:47 AM,64.4,62.6,94,30.10,0.8,Variable,5.8,-,0.19,Rain-Thunderstorm,Heavy Rain,0,2013-09-10 13:47:00
9:54 AM,64.9,62.1,90,30.09,1.8,Variable,3.5,-,0.20,Rain-Thunderstorm,Light Rain,0,2013-09-10 13:54:00
9:56 AM,64.4,62.6,94,30.09,3.0,Calm,Calm,-,0.00,Rain-Thunderstorm,Light Rain,0,2013-09-10 13:56:00
10:09 AM,64.4,62.6,94,30.08,2.5,Variable,3.5,-,0.04,Rain,Rain,0,2013-09-10 14:09:00
10:16 AM,64.4,62.6,94,30.07,2.5,SSE,8.1,-,0.07,Rain-Thunderstorm,Rain,160,2013-09-10 14:16:00
10:36 AM,66.2,62.6,88,30.03,4.0,Calm,Calm,-,0.13,Rain-Thunderstorm,Light Thunderstorms and Rain,0,2013-09-10 14:36:00
10:43 AM,66.2,62.6,88,30.03,7.0,Variable,5.8,-,0.13,Rain,Light Rain,0,2013-09-10 14:43:00
10:54 AM,66.9,63.0,87,30.02,7.0,SW,6.9,-,0.14,Rain,Light Rain,230,2013-09-10 14:54:00
11:54 AM,70.0,64.9,84,30.04,10.0,Calm,Calm,-,0.00,,Partly Cloudy,0,2013-09-10 15:54:00
12:54 PM,73.9,66.0,76,30.04,10.0,Calm,Calm,-,N/A,,Clear,0,2013-09-10 16:54:00
1:54 PM,75.0,66.9,76,30.04,10.0,South,4.6,-,N/A,,Overcast,190,2013-09-10 17:54:00
2:54 PM,77.0,66.9,71,30.04,10.0,SSW,6.9,-,N/A,,Overcast,200,2013-09-10 18:54:00
3:54 PM,78.1,66.0,66,30.02,10.0,SW,6.9,-,N/A,,Clear,230,2013-09-10 19:54:00
4:54 PM,79.0,66.9,66,30.01,10.0,Calm,Calm,-,N/A,,Clear,0,2013-09-10 20:54:00
5:54 PM,79.0,68.0,69,30.01,10.0,Calm,Calm,-,N/A,,Clear,0,2013-09-10 21:54:00
6:54 PM,73.0,69.1,87,30.01,6.0,Calm,Calm,-,N/A,,Clear,0,2013-09-10 22:54:00
7:50 PM,69.8,68.0,94,30.05,2.0,Calm,Calm,-,N/A,,Clear,0,2013-09-10 23:50:00
7:54 PM,70.0,68.0,93,30.04,2.5,Calm,Calm,-,N/A,,Clear,0,2013-09-10 23:54:00
8:01 PM,69.8,68.0,94,30.05,5.0,Calm,Calm,-,N/A,,Clear,0,2013-09-11 00:01:00
8:54 PM,70.0,66.9,90,30.05,4.0,Calm,Calm,-,N/A,,Clear,0,2013-09-11 00:54:00
9:30 PM,69.8,66.2,88,30.06,2.5,Calm,Calm,-,N/A,,Clear,0,2013-09-11 01:30:00
9:37 PM,69.8,68.0,94,30.06,4.0,Calm,Calm,-,N/A,,Clear,0,2013-09-11 01:37:00
9:54 PM,69.1,66.9,93,30.06,2.0,Calm,Calm,-,N/A,,Clear,0,2013-09-11 01:54:00
10:08 PM,68.0,66.2,94,30.07,1.5,Calm,Calm,-,N/A,,Clear,0,2013-09-11 02:08:00
10:22 PM,68.0,66.2,94,30.07,2.0,Calm,Calm,-,N/A,,Clear,0,2013-09-11 02:22:00
10:40 PM,68.0,66.2,94,30.07,3.0,Calm,Calm,-,N/A,,Clear,0,2013-09-11 02:40:00
10:54 PM,69.1,66.9,93,30.06,3.0,Calm,Calm,-,N/A,,Clear,0,2013-09-11 02:54:00
11:10 PM,69.8,66.2,88,30.07,2.5,Calm,Calm,-,N/A,,Clear,0,2013-09-11 03:10:00
11:17 PM,68.0,66.2,94,30.06,3.0,Calm,Calm,-,N/A,,Clear,0,2013-09-11 03:17:00
11:54 PM,69.1,66.9,93,30.05,3.0,Calm,Calm,-,N/A,,Clear,0,2013-09-11 03:54:00
11:59 PM,69.8,66.2,88,30.06,1.8,Calm,Calm,-,N/A,,Clear,0,2013-09-11 03:59:00